Location: Edinburgh
(55.9500°N, 3.1600°W)
Time: 04:31:50
(UTC+00:00)

Envisat - Pass Details

Date: 14 October 2017
Orbit: 764 x 766 km, 98.2° (Epoch: 13 December)

Event Time Altitude Azimuth Distance (km) Brightness Sun altitude
Exits shadow 20:19:25 22° 147° (SSE) 1,629 4.3 -18.2°
Maximum altitude 20:22:42 68° 69° (ENE) 832 2.9 -18.7°
Drops below altitude 10° 20:27:46 10° 348° (NNW) 2,320 5.8 -19.4°
Sets 20:30:06 0° 346° (NNW) 3,251 6.6 -19.7°
